STARLINK-11174, 60409

Orbit data source: Space-Track

STARLINK-11174, 60409 is a payload satellite owned by SpaceX/Seattle (US) in LEO that was launched on Sat, 10 Aug 2024 UTC via an FALCON 9 launch vehicle from the Air Force Eastern Test Range (AFETR). Payloads include a variety of satellites, spacecraft, and rockets equipped with specific instruments for various scientific and technological missions. These include communications satellites like Starlink; space stations such as the ISS; scientific satellites like the Hubble; Earth observation satellites from companies like Planet Labs, Umbra, and HawkEye 360; GPS; miniature CubeSats for education and research; and military/defense satellites.

Loading next visibility...
STARLINK-11174 details
Identifier
60409, 2024-141M
Orbit
LEO
Last TLE update8 hours ago
Origin
Flag of USSpaceX/Seattle (US)
ManufacturerSpaceX/Seattle
MissionOperational spacecraft
Bus & MotorSTARLINK V2M, Unknown motor
Mass730 kg wet, ~700 kg dry
Launch date (UTC)
2024-08-10 (5 months ago)
Launch vehicle
FALCON 9
Launch site
Air Force Eastern Test Range (AFETR)
Object type
Payload
Rocket body
Debris
Shape & HBRUnknown
Radar Cross SectionLarge (>1 m²)

Expand to show TLE details & history

TLE from 8 hours ago
0 STARLINK-11174
1 60409U 24141M   25014.93764532  .00015335  00000-0  13163-3 0  9996
2 60409  53.1591 350.5137 0002068 122.2767 237.8451 15.69630313 25927
Epoch: 2025-01-14T22:30Z
Definitive object data (Epoch: 2025-01-14T22:30:12.555Z)
Latitude-0.00007°
Longitude-101.67583°
Altitude361.612 km
Speed7.693 km/s
True Right ascension23h 22m 03s
True Declination0° 00' 00"
Sunlit
Object was in daylight at TLE epoch
Visualization TLE readout
Latitude21.93877°
Longitude59.15974°
Altitude359.353 km
Speed7.698 km/s
Apparent Right ascension13h 31m 39s
Apparent Declination-21° 27' 37"
Sunlit
Object is in full shadow
Visualization observer readout
Local Sidereal Time07:26:49
Azimuth106.069° ESE
Elevation-14.466°
Doppler factor1
Orbital elements
Apogee altitude361.609 km
Perigee altitude358.822 km
Semi-major axis6,738.353 km
Eccentricity0.0002068
Inclination53.1591°
RAAN350.5137°
Arg. of periapsis122.2767°
True anomaly237.82504°
Mean anomaly237.8451°
Eccentric anomaly237.83507°
Mean motion3.92385 °/min
BSTAR0.00013163
Orbital period91.75 mins
Loading maneuver chart data...
Loading historical data...
Loading historical data...
Loading historical data...
Loading historical data...
Loading historical data...
Loading historical data...
Loading historical data...

STARLINK-11174 Visibility forecast

Observer location: undefined°, undefined

Span
Click to sort rows by Start time (UTC) header in descending order
Start Az.
Max El. time (UTC)
Max El. Az.
Max El.
End time (UTC)
End Az.
5 mins2025-01-15 08:10:23.355Z303.133° NW2025-01-15 08:13:23.355Z187.79° SSW39.704°2025-01-15 08:15:23.355Z143.704° SSE
4 mins2025-01-16 00:40:23.355Z215.339° SW2025-01-16 00:42:23.355Z91.845° ESE40.164°2025-01-16 00:44:23.355Z56.528° ENE
|